Starlink 1446

operational
NORAD ID: 45663 Int'l Des: 2020-035 Owner: SPXS Country: US Constellation: starlink
LEOCIRCULAR

About Starlink 1446

Description loading...

Live Position

Loading 3D Globe...

Upcoming Passes

Altitude History

Altitude vs Time

uPlot chart will show altitude changes over time

Two-Line Element Set

1 45663U 20035G 25350.33465473 .00043927 00000-0 11595-2 0 9992
2 45663 53.0269 34.1114 0002726 18.2449 341.8651 15.38051269306827
Epoch: Dec 16, 2025 • Age: 17 hours

Current Status

Altitude 468.1 km
Velocity 7.63 km/s
Sub-Earth Point -44.58°S, 162.42°E
Launch Date Jun 4, 2020
Age 5.5 years
Type internet

Technical Details

Classification Payload
Mass 260.00 kg
Dry Mass 248.00 kg
Total Mass 260.00 kg
Length 0.20 m
Diameter 2.80 m
Span 9.00 m
Shape Box + pan
Manufacturer SPXS
Bus Type Starlink
Phase Status In Orbit
Owner/State SPXS/US

Large Constellations

Loading constellations...